GFSFLT1_850_spd_096.txt.gz
Wind_Speed
35 31 24 29 45 42 45 38 35 39 39 39 39 33 33 32 28 25 26 25 24 24 24 25 27 26 25 24 23 26 28 28
39 36 33 29 23 39 46 41 35 38 44 41 40 39 38 36 31 29 28 26 26 25 26 27 28 27 26 23 22 28 30 29
44 44 36 35 33 29 40 47 41 40 44 45 45 45 41 36 32 30 28 26 26 25 25 27 26 27 26 25 25 28 29 29
43 38 37 36 40 35 35 41 45 43 41 48 44 44 37 31 32 30 28 28 24 25 24 24 24 24 25 26 27 29 28 29
3 14 27 30 27 32 37 36 44 45 46 49 47 48 40 38 36 32 28 26 26 25 26 24 24 25 24 24 26 28 28 29
17 11 1 8 20 32 30 31 43 47 47 48 49 45 38 35 33 29 25 25 27 25 26 26 25 25 26 28 30 32 32 31
20 16 10 8 3 12 21 33 42 47 48 51 46 43 38 35 31 28 26 22 25 27 24 27 28 29 31 32 35 35 33 32
23 24 18 15 7 5 25 33 41 45 48 45 44 40 36 33 30 29 25 23 24 23 21 25 30 31 33 35 33 34 34 33
24 22 21 17 14 1 22 30 33 36 41 42 37 34 34 30 27 26 23 21 19 17 21 26 26 27 28 28 28 33 36 37
19 22 20 19 21 8 15 29 31 34 38 34 31 28 27 26 23 20 19 16 17 18 21 26 30 26 27 29 28 30 35 34
25 23 23 20 20 19 12 18 26 31 34 31 31 26 24 23 20 21 18 16 22 23 21 21 19 19 21 25 29 33 36 39
24 24 24 22 19 18 12 12 17 20 20 28 24 25 23 20 20 21 18 18 20 20 19 17 17 18 15 16 21 23 23 39
28 26 25 23 21 18 12 12 8 14 13 20 15 21 19 20 21 19 15 14 15 14 12 11 13 15 13 15 18 17 17 28
30 29 28 26 24 19 10 4 3 10 22 24 26 25 22 21 17 13 11 13 13 11 10 12 13 11 11 10 11 10 11 18
30 31 29 25 22 20 15 6 8 8 16 24 27 25 24 23 19 17 17 15 14 11 10 11 10 9 9 7 6 8 6 16
27 29 28 26 22 19 16 11 8 17 25 28 29 25 22 21 20 19 18 17 14 13 12 12 12 11 11 10 9 9 13 15
23 26 27 27 25 21 18 14 8 13 23 30 24 25 21 20 19 19 19 17 16 14 14 13 13 12 11 9 11 15 15 13
23 25 26 25 23 20 19 16 11 7 16 19 26 26 25 22 21 21 15 20 20 20 16 14 14 13 12 12 12 13 16 16
21 22 24 23 21 19 17 16 14 10 12 12 17 22 24 24 24 21 25 27 24 21 20 18 18 16 14 14 14 15 16 17

GFSFLT1_850_spd_099.txt.gz
Wind_Speed
35 32 30 32 30 29 30 38 43 41 40 39 36 35 36 37 34 33 28 29 28 26 25 24 23 25 27 26 29 32 34 30
40 40 35 36 31 30 27 27 37 44 45 43 42 40 40 36 35 35 31 29 28 27 27 26 26 28 28 26 26 27 28 28
38 36 37 37 37 34 31 27 29 41 46 42 45 42 42 37 35 35 32 31 30 30 30 29 29 28 29 27 26 26 26 30
16 18 24 30 31 32 35 30 31 32 45 45 48 45 44 40 36 35 39 34 33 33 30 30 30 29 29 28 26 26 28 32
21 19 13 14 20 21 25 30 30 30 42 48 48 45 47 42 36 43 42 35 34 34 30 30 29 29 28 27 25 26 28 32
23 28 24 19 14 17 23 30 30 31 38 50 50 49 49 43 45 44 38 36 34 32 28 29 28 27 27 25 23 27 30 32
20 21 27 21 15 14 14 21 26 32 37 46 54 49 50 47 44 40 40 38 34 30 30 29 30 28 28 25 25 27 29 31
26 21 27 23 21 18 10 20 27 32 31 43 53 49 50 48 43 38 38 37 33 30 31 30 29 29 28 24 25 28 30 32
28 19 25 22 21 20 11 15 22 31 33 40 46 46 43 43 37 33 35 35 31 27 27 28 25 26 26 25 26 28 31 35
29 24 21 18 19 16 9 10 22 27 28 34 36 38 36 36 33 29 29 30 28 23 22 20 21 22 25 28 30 32 30 31
30 26 22 19 18 16 10 6 12 19 25 27 26 27 31 29 27 25 26 26 23 21 21 22 23 24 28 28 27 29 31 31
28 25 23 19 18 17 15 6 11 16 16 25 25 24 26 24 24 22 24 22 21 20 22 21 21 22 24 22 21 25 29 36
26 26 25 23 20 18 17 12 2 5 8 13 19 29 17 25 21 19 22 22 18 18 20 20 18 18 18 17 15 16 19 24
28 29 28 27 23 20 15 13 11 2 4 9 16 26 35 36 22 20 22 18 16 13 14 14 13 14 14 13 12 14 18 20
28 31 29 27 24 22 19 11 7 4 2 8 12 10 13 23 23 22 17 15 16 14 13 12 12 10 8 6 7 10 13 13
26 30 30 28 27 24 21 16 7 3 7 14 19 21 22 27 22 21 19 18 18 16 13 11 12 11 9 8 7 9 12 12
23 28 29 29 28 26 23 21 16 8 7 15 20 26 29 26 24 23 21 16 22 14 14 13 13 12 8 8 9 9 9 8
24 26 28 27 25 23 23 22 19 17 11 9 14 24 27 24 24 24 22 20 18 17 17 16 13 12 9 9 10 10 12 14
23 24 26 27 25 24 21 22 22 23 21 20 15 8 21 24 25 25 23 22 23 22 20 16 15 13 11 11 12 13 12 12

GFSFLT1_850_spd_102.txt.gz
Wind_Speed
30 27 27 25 28 28 29 29 31 35 46 48 44 40 38 35 33 34 34 34 31 29 28 26 26 27 28 28 28 27 28 34
28 29 30 30 26 30 29 29 30 29 43 46 46 46 41 40 38 34 35 35 33 32 30 27 27 28 28 27 27 26 27 32
21 24 26 26 25 25 30 28 29 31 35 45 43 44 47 43 42 37 33 37 35 34 32 31 29 29 27 28 29 27 28 28
18 17 18 20 23 20 21 26 29 31 33 37 43 45 46 41 42 40 36 36 36 36 33 31 29 30 30 29 30 29 28 30
23 22 23 23 21 22 21 24 28 30 33 36 43 46 47 44 44 42 39 34 37 38 34 32 31 30 31 30 29 28 28 30
25 27 24 24 25 26 22 22 26 33 34 37 35 40 48 46 47 45 40 39 36 41 35 33 33 31 30 30 28 29 30 32
26 25 25 24 22 25 26 22 24 33 36 39 41 37 42 48 46 47 43 42 40 39 34 35 33 31 30 29 28 27 28 32
31 30 28 26 24 25 26 24 23 26 33 39 42 44 42 47 48 47 47 42 41 38 35 35 32 29 29 26 29 29 29 29
29 29 28 26 26 24 25 27 24 21 25 35 36 40 41 42 44 44 45 42 40 37 36 33 30 29 29 30 30 30 27 27
28 29 28 28 25 22 20 20 14 11 19 26 32 33 35 37 35 36 37 35 38 32 31 29 29 27 29 29 29 28 26 27
29 30 30 28 26 21 17 13 8 5 16 24 26 25 27 29 32 32 33 33 31 29 30 27 25 24 23 23 25 25 26 28
30 29 28 28 26 23 19 15 10 5 14 15 20 21 21 23 25 25 24 23 28 28 25 24 23 22 23 24 26 27 27 32
28 28 28 28 28 26 23 19 15 6 4 10 12 11 9 14 15 14 19 20 25 22 22 21 22 22 23 24 25 26 27 28
29 29 30 30 29 27 24 20 18 9 2 7 9 12 12 20 21 12 14 20 23 20 21 22 22 21 19 19 20 20 18 21
28 32 32 31 29 28 25 21 18 13 5 7 8 7 14 26 28 33 24 21 23 21 17 18 18 16 16 17 15 13 14 15
30 32 32 31 29 27 26 24 21 16 8 6 9 9 9 9 20 35 29 25 20 19 19 17 14 12 12 12 10 9 13 12
26 30 31 31 30 28 26 25 24 20 13 7 4 11 15 14 25 30 22 22 22 21 19 16 14 12 11 10 11 10 11 10
24 27 29 29 29 27 26 25 23 23 23 19 11 6 11 22 25 24 26 26 25 23 19 16 15 13 11 11 10 10 10 10
21 23 25 27 29 29 28 27 28 28 28 26 23 22 15 13 16 27 28 27 24 22 19 17 15 13 13 13 13 11 10 9

GFSFLT1_850_spd_105.txt.gz
Wind_Speed
15 15 17 18 19 20 23 25 23 25 31 34 40 43 44 44 40 39 36 36 35 32 31 30 28 27 28 28 28 28 28 27
14 15 15 18 20 22 21 24 26 26 30 36 39 44 46 50 47 42 39 36 37 35 34 32 30 29 30 28 27 27 27 26
13 15 15 15 15 16 16 20 25 28 30 33 38 39 45 48 49 48 42 38 37 38 37 34 33 30 30 29 28 28 28 27
18 20 21 21 20 17 15 16 22 25 30 31 32 32 33 35 46 51 47 41 38 39 39 36 35 32 31 30 28 27 28 28
20 22 23 24 24 24 23 18 19 23 25 31 31 37 38 44 45 51 50 45 42 40 39 38 36 34 33 31 28 27 28 29
18 22 26 28 28 27 26 26 23 20 25 31 34 39 41 41 43 48 48 44 44 42 40 41 37 35 32 32 31 31 30 30
21 22 24 25 27 28 27 26 27 24 22 30 38 40 41 37 40 46 49 48 43 44 41 37 37 35 32 34 30 29 29 29
25 27 27 27 26 26 24 23 27 23 23 29 36 41 41 40 37 44 49 51 46 46 40 35 37 38 36 33 30 28 29 29
25 25 25 27 27 25 22 22 25 20 19 23 31 37 40 41 40 38 48 48 48 48 46 45 43 41 36 31 28 26 28 27
23 24 24 27 28 26 25 22 19 18 15 12 18 28 35 39 40 39 41 41 41 43 43 41 41 34 30 28 27 26 25 28
25 25 25 27 27 26 24 21 19 14 11 6 14 20 29 34 35 34 36 33 36 37 38 38 33 30 28 29 29 27 27 30
27 26 27 28 26 26 25 22 18 13 5 3 16 18 23 30 28 26 31 30 31 33 29 28 30 28 28 28 27 24 28 22
26 28 29 28 28 27 25 24 19 13 7 7 8 12 19 17 20 23 24 25 25 26 28 30 28 25 24 23 22 22 22 25
26 28 30 29 28 28 26 24 21 17 7 3 2 11 10 4 6 11 14 19 19 22 26 27 26 24 22 22 22 23 24 25
23 27 30 29 27 27 26 24 21 19 14 9 5 9 10 10 11 12 12 14 20 26 26 26 21 17 21 21 22 20 19 19
21 27 30 29 28 27 26 24 22 21 16 9 6 2 8 11 16 16 19 22 21 30 30 24 19 22 20 17 18 17 15 15
21 24 27 29 28 28 26 27 24 22 21 19 13 6 3 10 14 19 26 37 28 29 23 24 21 20 15 15 18 16 15 13
18 21 24 27 28 27 28 27 26 27 27 25 22 16 10 8 11 17 25 29 31 23 28 25 24 20 17 17 16 15 15 14
17 20 22 24 26 29 29 28 28 31 30 30 29 26 23 18 12 17 22 25 28 28 24 23 21 19 18 18 18 17 16 14

GFSFLT1_850_spd_111.txt.gz
Wind_Speed
1 4 5 5 6 8 8 8 10 10 15 21 22 26 28 29 30 29 30 29 30 31 30 27 30 33 33 26 28 29 21 20
4 4 5 6 8 9 10 10 10 11 11 13 18 25 29 31 33 32 33 31 30 34 34 33 33 35 35 36 32 32 29 21
3 2 5 8 9 10 12 13 13 13 12 13 16 23 24 32 34 33 36 34 35 39 41 40 36 37 38 37 37 35 32 29
1 4 7 10 11 12 13 14 16 15 17 16 17 21 31 26 31 34 35 39 43 43 44 41 36 38 40 40 39 38 34 32
4 8 10 12 13 14 15 16 18 18 18 19 19 20 24 29 32 34 35 38 41 45 43 44 40 40 40 42 40 38 32 35
9 11 14 15 15 17 17 18 18 20 21 20 22 24 24 25 36 29 37 37 39 42 43 43 43 44 42 41 43 40 37 35
12 13 15 16 17 18 19 20 20 22 24 27 28 31 30 29 29 36 32 38 38 47 43 45 46 44 45 41 42 42 40 34
12 15 18 19 21 21 22 22 25 25 26 28 30 34 36 37 35 36 38 34 38 49 43 46 47 46 44 43 43 39 31 34
14 16 18 20 21 22 23 25 29 28 30 31 32 34 37 39 42 40 40 38 38 41 41 43 46 47 45 41 40 40 44 43
16 18 18 20 22 23 23 26 29 29 31 33 33 35 35 38 42 42 40 44 38 38 38 38 43 44 42 42 39 36 38 39
17 20 22 22 22 24 24 26 28 30 31 32 33 33 29 32 36 43 43 41 43 37 36 34 39 45 44 42 38 36 34 32
15 17 19 20 22 24 25 28 29 30 29 30 31 26 24 23 24 29 33 41 42 39 40 34 33 43 44 44 40 39 37 33
15 17 19 21 22 23 24 28 28 25 26 27 23 21 17 16 17 22 29 37 37 38 34 31 29 37 45 45 43 41 35 27
16 18 20 23 23 23 24 26 26 23 22 23 21 16 10 9 13 25 20 25 29 35 32 31 35 37 43 45 45 40 32 30
14 16 19 22 22 23 26 27 26 21 18 21 20 18 9 6 3 3 18 13 19 24 29 30 32 36 40 45 44 39 35 33
14 17 20 21 23 24 27 27 26 25 22 20 22 19 15 4 3 6 3 7 12 16 22 25 27 32 36 38 40 37 36 34
14 17 19 21 26 26 26 28 27 28 28 25 23 22 21 19 13 5 1 5 10 14 20 23 28 31 39 37 38 34 29 27
14 16 19 21 23 23 24 25 26 29 31 31 31 28 24 25 22 14 11 9 12 15 18 24 30 32 32 35 34 34 37 32
13 14 17 19 21 23 24 27 30 32 34 34 35 36 33 29 30 28 23 20 16 15 18 14 21 20 32 34 35 35 33 31

GFSFLT1_850_spd_114.txt.gz
Wind_Speed
12 9 4 5 3 4 4 5 8 13 15 21 27 27 23 26 28 30 30 31 30 34 33 33 30 40 39 28 28 27 28 28
13 9 6 6 3 4 5 6 7 9 9 11 11 14 20 24 27 32 31 32 34 34 37 38 38 35 38 41 29 32 34 28
11 9 6 8 6 7 7 7 8 9 8 13 16 20 26 24 26 28 37 37 36 40 38 38 41 41 37 35 37 37 35 31
13 6 7 5 7 10 10 10 10 12 13 14 15 18 22 28 30 29 26 32 37 40 41 43 42 44 43 39 39 45 42 34
8 7 5 6 7 10 14 16 16 14 18 19 18 21 24 24 26 27 24 28 39 42 44 43 45 48 45 41 40 40 40 35
8 7 6 7 10 12 15 17 18 19 21 21 24 27 29 31 33 35 39 33 24 43 46 44 45 45 46 45 42 42 42 42
6 5 8 11 13 15 16 17 19 22 23 24 26 28 31 34 36 39 39 44 36 31 47 47 47 43 42 43 42 43 43 44
7 11 13 15 18 20 20 21 24 24 25 27 28 30 32 35 37 39 41 44 46 41 37 46 51 47 45 44 45 44 42 41
10 12 14 17 20 22 24 28 30 29 29 30 31 32 34 37 38 39 43 45 48 45 32 42 46 42 39 45 44 47 45 42
12 14 15 18 20 22 24 31 33 31 32 32 33 33 34 37 39 39 42 46 49 48 39 37 46 43 40 41 50 50 45 44
16 17 17 18 19 21 24 27 29 31 32 31 32 32 34 36 36 38 42 45 44 48 46 36 45 47 40 38 46 48 47 43
18 19 19 20 23 23 25 29 30 30 29 28 29 30 32 32 32 31 32 34 40 45 46 42 46 45 39 41 46 47 44 42
14 16 18 21 23 24 27 29 31 30 27 25 26 26 25 24 23 23 23 16 23 26 41 43 47 46 39 38 46 45 43 40
13 14 16 18 21 25 26 28 31 28 25 24 24 23 21 20 19 17 20 24 22 22 33 41 46 45 39 35 41 45 43 43
14 15 17 19 21 23 26 26 28 26 24 22 21 21 19 17 17 17 17 17 25 35 37 37 40 38 35 32 40 40 41 41
14 15 17 19 23 25 24 23 25 25 25 24 22 21 20 18 17 15 14 8 5 4 27 21 25 29 29 29 31 36 37 38
11 14 18 21 23 23 22 24 24 25 27 28 28 25 24 23 22 18 18 16 14 10 7 11 20 24 26 28 28 36 39 40
13 15 17 18 21 21 22 22 23 26 29 31 33 33 32 30 29 27 26 25 18 19 14 10 10 15 24 29 32 39 40 38
11 13 15 17 19 21 22 24 26 29 32 34 35 37 39 38 37 38 38 36 31 28 24 19 14 8 10 25 33 38 38 33

GFSFLT1_850_spd_117.txt.gz
Wind_Speed
23 20 16 10 7 6 8 10 13 14 16 16 19 22 23 23 26 26 28 30 29 31 36 41 38 37 36 36 33 30 28 27
20 16 14 10 6 2 5 8 10 13 13 14 17 19 25 28 22 26 29 31 35 34 33 37 40 42 45 37 36 32 31 29
24 16 10 7 4 3 4 5 10 12 13 14 16 21 23 24 29 26 23 33 29 38 37 38 41 43 42 49 40 37 32 33
28 22 17 9 8 6 7 10 12 14 16 18 18 18 21 25 28 33 29 29 28 32 39 40 43 41 41 42 44 43 40 38
28 22 17 11 7 7 11 12 15 16 18 20 21 22 24 24 26 29 33 35 34 28 33 37 45 43 42 40 42 42 45 41
26 22 16 11 8 11 14 16 18 20 21 21 23 25 26 29 31 31 32 34 40 37 32 33 39 45 45 41 45 44 40 44
24 19 12 11 11 13 15 18 22 23 24 25 25 26 27 29 31 34 35 35 39 43 45 37 35 41 46 46 45 46 42 42
22 19 16 14 16 18 21 24 27 30 29 28 28 28 29 31 32 33 35 39 41 41 44 48 41 37 46 47 44 43 40 43
21 19 18 18 18 21 24 26 28 29 29 30 30 30 30 31 33 35 38 40 42 43 44 46 48 38 37 48 44 42 42 42
22 17 14 15 18 23 26 28 28 29 31 32 32 30 30 32 34 36 39 40 41 41 44 45 46 45 39 42 46 42 42 44
16 12 12 16 21 24 26 27 28 29 29 29 30 31 31 32 34 35 36 39 39 38 40 43 44 46 42 40 45 45 42 43
15 13 13 17 22 26 27 28 29 29 29 28 27 27 29 31 31 31 32 35 35 37 39 42 46 47 47 42 47 50 45 47
12 14 18 22 24 28 29 29 28 28 27 26 25 24 25 26 26 25 23 27 32 34 35 35 36 42 46 41 50 48 49 49
16 19 21 23 26 27 27 27 26 26 26 24 23 21 21 22 21 21 21 20 22 27 35 34 29 28 40 46 47 48 46 44
16 19 21 23 24 25 25 25 24 24 24 24 24 22 20 19 17 17 16 16 16 21 26 30 29 27 30 41 45 46 44 44
14 18 21 22 23 24 23 22 22 23 24 26 26 26 24 19 18 16 15 15 17 13 11 11 23 30 35 39 39 41 40 37
15 16 17 20 22 21 21 23 24 24 25 27 28 29 30 29 28 26 22 23 28 20 15 19 8 20 27 28 30 34 31 31
11 13 15 16 18 20 24 26 26 26 27 27 28 30 32 36 36 36 37 38 38 39 29 32 28 14 21 16 25 31 24 30
11 12 13 14 16 19 21 24 26 27 28 29 29 32 35 38 40 41 42 44 46 47 44 43 41 37 27 22 26 24 26 30

GFSFLT1_850_spd_120.txt.gz
Wind_Speed
27 26 23 20 19 17 14 11 10 11 13 14 15 17 21 24 24 19 23 29 35 54 41 32 36 36 39 40 37 35 34 31
30 25 20 16 12 10 8 7 7 8 10 12 15 17 18 23 28 23 19 18 27 32 34 36 36 37 41 42 42 39 37 35
26 22 18 12 8 6 3 4 7 10 12 12 13 17 20 22 24 26 29 26 22 25 26 34 38 38 38 46 45 37 38 34
24 21 18 13 9 7 7 8 9 10 13 17 16 17 18 23 25 27 27 29 30 27 25 25 33 39 45 42 48 39 40 31
22 20 18 13 12 9 7 8 9 11 14 18 21 23 25 24 26 28 28 28 30 34 34 31 27 30 36 39 41 42 45 38
23 19 15 12 9 10 10 11 12 14 15 18 21 24 27 29 30 31 30 29 30 32 33 37 37 32 29 36 37 40 40 42
22 17 13 13 12 13 14 16 18 19 20 21 23 25 28 31 33 34 35 33 32 31 33 36 38 38 35 32 34 38 41 43
21 20 19 18 18 18 18 19 21 22 24 24 25 26 28 31 32 35 37 37 36 34 35 35 38 39 40 38 36 39 40 42
19 16 17 20 20 23 23 24 24 26 27 27 27 27 29 30 32 34 36 38 38 37 37 39 40 40 41 39 39 35 42 42
10 9 17 23 28 27 24 23 25 26 27 28 27 27 28 30 31 32 34 35 37 38 39 41 42 43 40 39 40 43 37 46
7 7 16 22 23 22 23 24 26 26 26 26 27 27 27 28 29 32 33 34 34 36 36 37 38 37 37 36 41 43 41 43
8 10 14 16 17 22 25 26 25 25 25 26 26 26 27 27 28 29 31 31 32 35 35 35 35 35 37 37 39 41 45 44
10 12 13 17 21 24 24 24 23 24 25 24 24 25 26 25 25 26 26 28 29 31 31 32 34 35 35 38 40 42 49 41
11 13 17 18 19 21 23 23 24 25 24 24 24 23 24 23 22 21 22 23 24 25 28 31 31 33 37 38 41 39 45 44
10 12 12 17 21 23 24 26 26 24 23 23 23 23 23 23 20 18 17 18 19 18 19 21 25 28 29 33 35 30 41 44
11 12 15 19 21 23 26 27 27 26 23 21 20 20 22 23 22 19 18 17 16 14 18 14 17 21 25 27 26 26 34 40
8 9 15 19 21 23 26 28 28 26 25 24 22 22 23 25 26 25 25 25 25 26 25 25 16 12 13 16 24 25 27 35
8 13 16 17 19 21 24 23 22 25 28 28 27 27 28 28 28 30 31 33 34 37 37 34 34 28 13 13 20 12 10 18
10 11 13 15 16 18 21 23 24 25 24 25 26 27 29 31 33 36 38 41 43 45 44 43 40 38 36 29 21 14 16 13

GFSFLT1_850_spd_123.txt.gz
Wind_Speed
15 19 19 20 19 17 15 14 14 13 13 13 13 14 16 18 19 16 18 21 22 25 35 53 46 47 38 35 37 35 36 36
18 17 16 13 12 9 8 6 6 7 9 10 12 14 16 18 21 19 17 20 17 19 22 28 39 56 48 36 36 37 36 37
18 15 12 13 12 10 6 3 1 3 4 6 9 10 11 15 16 17 17 19 20 22 15 22 26 49 52 50 47 41 38 37
18 18 16 12 14 14 12 12 10 8 7 7 8 10 12 17 19 21 20 20 21 20 21 22 22 22 32 42 43 44 40 39
19 18 18 16 14 12 14 14 15 14 14 13 14 17 18 18 21 22 22 23 24 25 24 25 26 28 29 28 31 42 44 44
20 19 19 18 17 18 16 16 18 18 17 17 17 18 21 23 25 26 26 25 26 27 28 28 29 28 30 31 29 31 34 40
18 17 19 21 22 22 23 22 24 23 22 21 21 22 22 24 26 28 29 29 28 27 29 30 31 31 31 31 31 33 31 33
15 21 23 26 28 31 29 27 27 26 24 23 24 25 25 26 26 27 30 31 30 28 28 30 31 33 34 35 35 35 35 31
9 8 12 24 30 33 28 28 28 28 27 26 26 27 28 27 27 28 29 30 30 30 30 29 30 33 35 37 38 38 38 37
3 5 10 14 19 20 25 28 24 25 27 27 26 26 26 28 28 28 29 29 30 31 30 29 29 32 34 36 40 39 39 39
2 8 13 13 13 16 19 20 23 26 25 25 26 25 26 26 26 27 27 27 28 30 29 28 29 29 31 32 34 34 35 38
3 10 11 13 15 17 19 20 22 24 24 23 23 24 24 25 25 24 25 25 25 27 28 29 31 31 31 32 31 30 30 34
5 9 12 14 17 19 21 23 25 25 24 24 22 23 23 23 23 22 22 23 23 25 26 29 30 31 32 35 32 31 33 33
5 8 11 15 17 19 20 22 23 22 21 21 23 22 22 22 23 22 20 20 20 21 22 25 30 31 33 33 35 35 35 37
6 9 10 12 15 17 18 21 22 22 24 24 22 22 23 23 21 21 21 20 19 18 19 21 23 25 28 31 33 31 31 35
4 6 8 9 12 14 16 19 21 22 22 25 28 25 22 22 22 23 23 23 22 22 21 23 23 21 23 27 26 23 27 29
3 5 6 6 8 12 14 14 15 17 22 28 29 28 27 28 27 28 29 30 31 30 30 31 28 24 18 14 15 10 20 22
5 4 3 6 9 12 15 15 15 18 21 23 25 27 28 29 32 33 36 38 38 39 38 38 35 29 30 22 10 12 12 15
6 8 9 9 10 11 15 19 20 21 24 26 26 25 24 26 28 30 33 37 40 42 44 44 40 35 33 35 33 30 31 21

GFSFLT1_850_spd_129.txt.gz
Wind_Speed
15 14 13 12 11 9 8 5 3 3 3 5 6 6 8 9 10 11 12 13 15 16 19 23 28 31 32 38 45 42 41 29
14 15 15 15 14 13 13 11 9 6 2 5 7 8 9 9 10 11 13 14 15 18 22 24 24 24 23 28 37 45 49 42
13 15 17 18 18 18 18 18 17 15 13 9 8 9 11 12 13 13 13 14 16 17 19 22 25 24 25 24 26 32 36 38
12 14 16 17 19 22 21 20 19 18 16 16 14 11 11 13 14 16 16 17 17 19 19 21 23 25 27 28 27 29 32 33
8 9 10 13 14 17 20 20 21 20 20 19 19 19 20 19 21 21 21 20 20 20 21 22 23 25 26 29 31 31 31 35
7 8 8 8 10 14 19 20 23 23 22 22 22 22 21 21 23 24 24 24 23 20 21 25 27 26 26 28 30 33 34 33
1 6 11 15 17 18 20 25 26 28 29 27 26 24 24 25 23 23 24 25 25 25 23 23 26 29 28 28 31 33 35 37
4 6 7 11 15 17 18 20 22 25 28 27 26 27 25 24 26 27 26 25 25 26 26 26 26 27 30 31 30 33 34 36
3 4 8 12 15 17 18 20 21 23 23 23 23 23 24 25 25 26 26 26 27 27 27 28 28 28 29 31 33 32 34 35
4 4 8 12 15 17 20 22 21 20 21 21 22 23 23 22 22 22 23 24 25 26 27 28 28 28 28 29 31 30 30 33
7 5 9 13 15 17 17 18 20 21 22 22 22 22 21 21 21 22 21 22 23 24 24 24 26 27 28 29 30 28 27 30
7 4 8 11 13 13 15 18 20 21 21 21 21 22 22 21 20 21 21 20 20 20 21 22 24 26 27 29 30 30 30 30
6 4 7 10 11 13 14 16 17 20 21 22 23 24 24 23 22 20 19 19 19 20 19 19 21 21 23 26 27 28 32 34
5 2 5 7 9 10 12 13 15 17 18 21 23 25 26 26 24 23 22 21 21 19 18 21 21 21 23 25 27 28 31 32
4 1 3 5 7 9 11 11 13 14 16 17 18 20 21 23 23 24 26 26 24 22 23 25 25 24 22 20 17 18 20 25
4 2 2 4 5 8 9 10 12 13 13 14 15 16 16 17 18 20 24 28 31 31 31 31 30 27 23 19 16 16 14 10
3 2 3 3 6 8 9 10 11 13 14 14 15 16 17 20 21 21 21 24 27 30 34 37 37 30 22 21 22 29 28 20
5 4 5 5 6 8 10 11 10 11 12 14 15 16 17 20 22 22 24 28 28 29 31 35 40 40 34 32 33 35 36 36
7 8 7 6 6 6 9 10 10 11 12 15 16 17 17 18 19 21 23 26 29 31 34 37 37 38 38 38 39 41 43 45

GFSFLT1_850_spd_132.txt.gz
Wind_Speed
9 9 10 11 11 12 12 13 12 8 6 3 3 5 7 9 11 12 12 13 14 14 16 18 19 20 22 22 23 25 32 35
9 11 11 11 11 10 11 11 12 11 10 7 6 9 7 7 12 14 15 16 18 18 20 21 22 21 22 21 23 25 25 31
8 9 11 11 12 12 12 12 13 14 13 12 11 11 13 14 13 14 16 17 18 19 20 20 23 24 24 22 22 25 25 26
6 7 8 6 7 9 11 13 13 13 13 14 13 12 11 10 15 16 17 18 19 20 21 22 23 24 25 25 24 24 24 30
4 4 7 10 12 14 15 16 16 16 18 17 15 13 13 15 16 18 20 20 20 20 21 24 26 26 27 24 22 25 28 31
3 4 6 9 11 13 15 17 20 19 18 19 18 18 17 16 17 19 19 21 21 22 23 24 24 26 28 29 28 27 24 25
3 4 6 8 11 12 14 16 18 21 22 21 20 19 20 20 19 21 19 19 19 20 23 24 25 25 27 29 29 30 31 33
3 2 4 6 10 12 13 15 16 18 19 19 17 19 18 18 19 18 20 20 19 20 22 23 24 25 26 29 31 30 29 32
3 2 4 6 9 11 12 13 15 17 18 19 18 19 17 16 17 18 17 18 19 21 21 22 23 24 26 27 30 33 33 31
5 3 3 6 8 11 13 15 16 18 18 18 18 18 18 18 17 17 17 18 18 19 20 21 21 22 23 24 26 28 30 32
6 2 2 4 6 9 11 12 13 16 19 20 20 19 18 18 18 18 19 19 19 20 21 21 21 22 22 22 24 26 28 31
8 4 2 3 5 6 8 11 13 15 16 18 19 19 19 20 20 20 20 20 19 19 19 20 21 22 23 24 25 26 27 26
9 6 3 2 3 5 8 10 12 13 14 15 16 17 18 19 21 21 21 21 19 19 19 20 22 23 22 22 23 22 23 26
11 8 5 3 4 5 7 8 10 11 12 13 14 15 16 18 19 20 21 21 20 20 20 21 22 24 25 25 22 22 22 24
11 10 6 4 4 5 6 6 8 9 10 11 13 15 15 14 15 16 19 21 21 22 22 23 24 26 24 23 21 21 19 16
11 10 7 5 5 4 5 6 7 8 9 10 13 14 15 15 15 14 15 17 20 23 26 27 29 29 26 23 22 23 23 20
11 9 9 6 5 5 4 4 5 7 8 10 11 11 12 14 15 16 17 18 21 23 24 27 31 31 28 30 29 28 30 31
12 10 9 8 7 7 6 6 7 7 8 10 11 11 11 12 14 15 16 17 19 23 26 29 31 30 28 30 33 35 35 38
12 11 10 9 9 8 8 7 7 7 8 10 11 12 12 12 12 14 16 18 21 24 27 29 30 32 31 30 29 32 35 38

GFSFLT1_850_spd_135.txt.gz
Wind_Speed
5 7 8 10 11 13 13 12 11 11 10 8 6 7 7 7 9 13 13 14 14 12 12 16 16 15 17 17 19 20 19 22
5 6 8 9 8 10 11 13 14 12 12 12 10 11 9 9 11 16 16 17 18 16 16 16 16 17 19 20 16 19 24 23
5 5 6 7 7 8 10 11 13 14 13 13 12 11 10 9 12 13 16 17 18 18 19 19 18 18 19 18 16 16 18 21
7 4 3 6 8 9 11 12 14 15 15 14 14 11 10 11 14 13 16 17 17 19 19 19 21 19 16 17 17 17 19 18
7 4 3 5 7 8 9 10 12 13 13 12 14 13 14 15 15 16 18 17 18 18 19 21 22 21 21 19 15 18 17 21
7 4 4 5 7 7 9 10 12 14 16 15 13 13 13 14 16 19 17 18 17 16 18 22 21 22 23 24 23 21 21 22
7 5 4 5 6 8 9 10 12 14 16 16 15 15 15 15 17 17 16 16 16 16 21 22 24 23 22 24 25 26 26 25
8 5 3 4 6 8 8 10 11 14 15 15 15 15 15 14 16 16 18 17 17 18 21 22 22 23 24 24 25 26 27 28
9 6 5 4 4 6 7 9 10 12 14 14 15 15 15 13 15 16 15 17 17 19 21 20 20 21 22 23 25 26 26 28
11 8 6 4 3 5 6 7 8 11 12 13 14 15 15 14 15 15 15 16 17 18 19 19 19 20 20 21 22 24 25 27
12 9 7 5 5 4 4 5 6 9 10 11 12 14 15 15 14 16 18 17 18 18 18 19 19 19 20 20 20 21 23 25
14 10 8 6 4 4 3 3 5 8 9 9 11 12 13 14 15 17 20 19 19 19 20 20 21 21 20 20 19 18 19 21
15 12 9 7 5 4 2 3 6 8 8 8 10 11 12 13 14 15 18 19 19 21 21 22 22 23 23 21 20 21 21 23
15 13 10 7 6 5 3 3 4 5 6 6 8 10 12 13 13 14 16 18 19 20 21 24 24 25 25 21 20 20 20 22
15 12 9 7 6 5 4 4 4 5 4 5 7 9 11 12 13 14 15 16 17 18 20 20 21 25 27 24 20 21 22 22
14 12 10 8 6 5 5 4 4 4 3 5 6 8 9 10 10 11 13 14 16 17 18 19 21 23 23 25 24 24 24 24
14 12 11 9 7 6 5 4 3 3 4 4 5 6 8 9 10 11 12 13 14 17 18 19 24 25 22 22 25 28 30 31
14 14 12 10 8 7 6 6 5 4 5 5 6 7 8 9 10 11 12 13 13 16 19 20 23 25 23 24 25 25 28 31
16 16 13 11 9 8 8 6 5 4 5 5 7 7 8 10 10 10 11 13 16 17 20 22 23 26 25 25 26 27 29 30

GFSFLT1_850_spd_138.txt.gz
Wind_Speed
6 4 5 7 7 7 10 11 11 9 7 5 4 7 9 9 15 16 17 15 15 14 13 14 15 14 12 15 14 12 14 15
6 3 5 5 7 9 11 12 12 13 12 11 10 11 7 10 11 16 18 18 17 16 16 15 16 17 16 13 13 13 13 14
5 2 2 4 6 8 9 10 12 13 12 12 12 10 8 8 12 12 17 19 19 20 20 19 19 18 17 16 13 14 15 7
11 5 1 4 5 6 6 7 10 12 11 10 9 6 6 11 14 15 18 18 19 18 20 21 21 19 19 19 15 13 17 15
14 8 4 0 3 6 8 8 10 12 14 14 14 14 14 14 15 17 16 16 17 15 20 22 23 23 20 20 19 18 16 19
12 9 7 4 3 4 7 6 9 12 14 15 16 16 14 14 16 17 16 15 13 16 22 24 25 24 24 23 24 23 19 19
15 11 8 5 3 3 6 4 8 11 13 15 16 16 17 16 19 19 19 17 17 19 22 22 21 22 23 24 24 25 23 22
17 13 11 7 4 4 4 4 6 9 11 13 15 16 16 16 18 19 19 20 21 22 23 22 21 21 21 22 23 23 23 23
19 15 10 9 6 5 4 3 5 7 9 11 12 13 13 14 15 16 17 18 18 20 21 20 21 21 20 21 22 22 21 22
19 16 14 10 8 5 5 3 4 7 8 9 11 12 12 13 14 15 16 18 18 19 20 19 21 22 22 21 21 21 22 21
22 18 16 12 8 5 3 3 3 5 6 7 9 10 10 11 12 14 16 17 18 19 21 21 20 22 21 20 21 21 22 22
23 21 17 13 9 5 2 1 2 3 4 6 6 8 8 9 11 12 14 15 17 20 21 22 23 25 25 20 20 22 23 23
24 22 20 15 10 7 5 1 2 3 4 5 6 6 8 9 10 12 13 15 16 17 19 20 22 26 27 21 23 24 23 23
22 19 17 14 11 8 6 4 3 2 3 2 1 3 6 8 11 13 13 14 15 16 18 20 21 23 25 24 24 25 22 21
17 17 15 13 11 9 6 5 4 2 2 3 1 3 4 6 8 9 9 11 14 15 16 19 20 22 22 24 24 27 26 24
18 16 16 13 12 10 8 6 6 5 3 2 1 2 4 5 6 7 8 10 14 16 15 18 20 22 24 22 20 22 26 28
19 16 16 14 12 11 9 7 6 5 3 2 2 3 4 6 7 8 9 11 12 14 16 17 20 22 20 20 21 22 23 26
21 19 18 14 13 10 8 7 7 5 3 3 3 5 5 6 8 9 11 12 12 15 16 16 19 22 20 20 22 21 24 27
24 21 18 16 14 13 10 8 7 5 4 4 5 5 6 7 7 8 10 11 13 16 17 18 19 22 21 19 21 24 25 27

GFSFLT1_850_spd_141.txt.gz
Wind_Speed
14 9 6 0 4 6 7 7 8 7 6 4 5 5 8 10 14 15 17 16 15 14 13 13 13 14 13 12 14 10 9 9
17 11 6 5 4 6 8 7 8 6 5 5 5 8 6 7 12 13 16 17 17 17 17 16 14 15 15 14 14 14 11 11
18 12 7 3 3 1 6 8 9 9 10 9 5 2 5 8 12 12 16 16 17 19 19 19 19 16 15 14 15 14 13 7
23 14 7 4 2 1 3 5 7 9 10 10 8 4 5 9 14 15 16 16 19 18 20 21 22 21 20 18 15 13 16 13
23 13 9 6 3 4 4 5 6 8 10 11 13 15 15 17 18 19 18 18 20 21 22 22 21 20 19 18 17 17 14 16
24 18 15 8 6 7 4 4 5 7 8 10 12 13 14 15 17 18 18 18 19 21 21 21 20 19 19 18 16 15 15 15
24 21 16 11 10 9 7 4 3 4 7 9 11 13 15 16 18 20 21 22 22 23 23 21 20 19 18 18 17 15 14 12
29 22 17 14 11 9 8 4 4 3 5 7 9 11 13 15 17 19 20 21 22 24 23 22 21 20 19 17 16 15 14 13
27 21 21 18 13 12 8 4 3 2 2 4 6 9 11 12 13 15 16 18 20 21 21 21 21 20 19 18 15 15 15 14
24 24 23 18 14 11 8 4 2 1 1 3 5 7 8 10 11 12 13 15 16 17 19 20 22 23 21 18 18 18 18 16
27 25 21 16 13 10 9 7 4 2 2 4 5 7 7 8 9 11 12 13 13 15 17 19 22 23 22 21 22 21 19 18
12 19 17 11 9 8 9 8 6 3 3 3 4 7 8 9 9 10 11 12 13 14 16 16 18 20 20 21 25 25 23 22
29 24 19 15 8 7 7 6 5 3 2 3 3 4 5 7 8 9 9 11 10 12 14 16 17 18 18 19 23 25 26 24
32 26 23 13 8 10 10 7 4 5 8 5 2 1 3 4 5 6 8 9 10 11 14 16 17 18 18 18 19 22 25 26
29 26 21 22 21 19 15 9 8 9 10 6 4 2 0 1 2 4 6 8 9 11 13 16 16 17 19 19 21 21 22 24
34 30 25 25 24 20 14 12 14 10 6 5 4 2 1 1 2 4 6 8 10 12 13 15 16 16 19 18 19 20 22 24
31 25 26 27 25 20 15 14 14 8 6 7 5 3 2 2 3 5 6 8 11 12 13 15 17 18 16 17 19 20 22 24
28 29 33 28 22 17 15 14 10 8 8 7 4 3 3 4 5 5 7 8 10 12 14 15 17 20 16 17 19 21 22 24
35 36 32 26 20 16 14 12 10 9 7 5 5 5 5 5 5 6 7 8 10 13 15 16 17 20 18 18 18 20 22 25

GFSFLT1_850_spd_144.txt.gz
Wind_Speed
18 13 8 5 5 5 4 3 3 3 4 4 3 3 5 8 11 13 14 14 14 13 12 12 14 14 14 13 13 12 14 16
20 15 9 8 7 5 3 3 2 3 5 6 4 2 5 8 11 13 14 16 16 17 18 18 17 17 17 16 15 14 12 15
24 17 13 11 8 5 2 2 5 6 6 5 3 3 6 9 10 12 14 15 16 17 17 18 20 20 18 18 18 16 13 11
25 19 15 12 9 6 6 7 7 7 7 6 5 5 5 6 11 15 17 19 20 21 20 19 19 18 18 16 15 14 16 11
26 22 18 13 11 9 9 9 7 6 6 4 3 6 9 13 15 17 17 19 19 20 20 19 18 17 16 14 14 13 11 14
29 24 19 13 11 10 10 8 6 5 3 2 4 6 9 10 11 13 15 18 19 20 21 20 19 18 16 14 13 11 11 11
29 25 20 15 11 10 8 5 4 3 2 2 5 7 9 10 12 14 16 17 18 19 20 20 19 18 16 14 11 8 8 8
33 28 20 14 11 8 5 3 3 2 1 3 5 7 9 11 12 13 14 15 16 18 19 21 22 19 17 14 11 10 9 8
29 24 19 14 10 5 5 7 6 3 2 4 6 7 9 10 11 11 12 12 14 15 16 18 20 19 19 18 16 14 12 9
22 20 17 13 7 4 6 7 6 4 4 5 6 8 8 9 8 8 9 9 10 11 13 15 16 17 18 18 20 19 17 14
22 22 17 14 9 7 9 8 7 7 6 7 7 7 8 8 7 6 7 8 8 9 11 13 13 14 16 18 20 21 21 20
29 33 30 21 17 13 10 12 10 9 8 6 6 7 7 6 6 7 8 8 9 10 11 12 13 13 14 16 17 20 21 20
31 35 32 24 19 15 10 9 9 9 10 7 5 6 6 6 7 7 8 8 9 10 10 11 12 13 14 16 17 18 19 21
34 37 32 26 21 17 14 9 9 10 9 7 6 6 8 7 7 7 7 8 8 8 9 11 12 13 13 15 17 18 18 19
35 34 31 28 24 19 13 15 11 12 10 9 8 8 9 8 7 7 5 5 6 8 10 12 11 12 13 14 15 15 17 18
35 39 37 31 25 24 19 11 12 12 11 9 9 8 8 7 6 5 4 4 5 8 10 11 11 11 13 14 14 15 16 17
39 39 36 31 29 25 18 15 14 12 11 11 10 8 7 5 4 2 1 5 7 8 10 11 11 12 12 14 15 16 16 17
35 36 35 32 28 22 19 16 14 14 11 9 8 7 6 5 3 3 3 5 7 8 10 11 13 12 11 13 15 15 16 17
32 33 33 28 27 24 18 17 15 12 10 9 8 8 7 6 5 4 3 5 6 8 9 11 12 15 11 12 13 14 15 16

GFSFLT1_850_spd_147.txt.gz
Wind_Speed
19 16 13 10 9 8 7 8 7 6 4 3 2 4 6 8 9 11 12 13 14 15 16 17 19 20 20 17 16 15 17 19
20 17 14 12 11 9 9 9 9 8 6 3 3 3 2 4 7 9 11 13 14 16 18 19 20 22 23 22 21 20 17 18
24 20 16 12 11 10 8 9 10 10 8 6 4 1 2 5 7 9 12 14 15 16 17 18 19 19 19 21 22 22 19 17
29 23 17 13 10 8 8 10 11 11 10 7 4 2 3 5 7 10 13 16 17 18 18 18 18 18 18 17 16 16 18 14
31 26 19 15 11 9 9 10 9 8 7 5 5 2 2 7 11 13 14 15 16 17 17 17 17 16 15 14 14 14 13 13
34 25 20 15 10 10 10 8 7 6 6 5 3 2 5 7 9 11 13 14 15 16 17 17 17 16 15 13 11 10 11 11
30 24 19 15 12 9 6 6 7 5 4 3 2 2 4 6 7 9 12 13 13 14 16 16 16 16 16 14 14 12 10 9
29 25 18 15 12 9 9 8 7 6 4 2 1 3 5 6 8 10 11 12 13 13 14 14 15 15 15 16 14 14 13 11
27 22 19 16 13 10 8 7 7 5 4 4 4 5 6 7 8 9 10 11 12 11 11 12 12 13 13 14 15 15 13 11
28 26 25 25 21 16 9 9 9 9 7 7 6 6 6 7 7 8 9 10 10 10 11 10 10 9 10 13 14 15 15 13
30 31 31 25 22 16 13 12 11 11 10 9 8 6 6 7 7 7 8 8 9 10 10 9 9 9 10 11 13 14 15 15
36 36 32 29 25 20 15 13 9 8 10 10 8 6 6 6 6 6 8 8 9 9 9 9 8 10 10 11 12 13 14 14
36 36 36 31 27 22 17 12 9 9 11 9 7 5 5 5 5 6 8 8 8 8 8 9 9 9 10 10 12 13 14 14
33 35 35 34 30 24 19 14 10 12 11 9 7 6 6 5 6 7 7 7 7 7 7 7 8 8 9 10 12 13 14 15
33 36 37 37 30 27 24 19 13 11 10 9 7 6 6 6 5 5 5 5 5 6 6 7 6 7 8 9 11 12 13 14
35 36 36 37 33 30 25 21 13 11 10 8 7 7 7 6 5 3 3 3 4 5 7 8 7 8 7 10 10 11 13 14
31 30 35 39 36 31 26 21 12 12 11 8 8 9 8 6 4 2 1 2 3 4 6 7 7 7 7 10 11 12 12 13
27 31 34 37 36 30 26 19 12 14 12 10 10 9 7 5 3 2 1 0 2 4 5 6 8 6 6 8 10 11 11 12
24 29 32 32 30 27 23 17 16 15 11 11 11 10 8 6 5 3 2 0 2 3 3 5 8 10 7 6 8 9 10 10